Year,Month,Day,Hour,Minute,Value (Times are PST for temperature in C)
2019,03,30,00,00,7.80
2019,03,30,00,01,7.70
2019,03,30,00,02,7.60
2019,03,30,00,03,7.60
2019,03,30,00,04,7.50
2019,03,30,00,05,7.40
2019,03,30,00,06,7.40
2019,03,30,00,07,7.30
2019,03,30,00,08,7.30
2019,03,30,00,09,7.30
2019,03,30,00,10,7.20
2019,03,30,00,11,7.20
2019,03,30,00,12,7.20
2019,03,30,00,13,7.30
2019,03,30,00,14,7.30
2019,03,30,00,15,7.30
2019,03,30,00,16,7.20
2019,03,30,00,17,7.20
2019,03,30,00,18,7.20
2019,03,30,00,19,7.20
2019,03,30,00,20,7.20
2019,03,30,00,21,7.20
2019,03,30,00,22,7.10
2019,03,30,00,23,7.10
2019,03,30,00,24,7.00
2019,03,30,00,25,6.90
2019,03,30,00,26,6.90
2019,03,30,00,27,6.90
2019,03,30,00,28,6.90
2019,03,30,00,29,7.00
2019,03,30,00,30,7.00
2019,03,30,00,31,7.00
2019,03,30,00,32,7.10
2019,03,30,00,33,7.10
2019,03,30,00,34,7.10
2019,03,30,00,35,7.20
2019,03,30,00,36,7.20
2019,03,30,00,37,7.30
2019,03,30,00,38,7.30
2019,03,30,00,39,7.40
2019,03,30,00,40,7.40
2019,03,30,00,41,7.40
2019,03,30,00,42,7.40
2019,03,30,00,43,7.50
2019,03,30,00,44,7.50
2019,03,30,00,45,7.50
2019,03,30,00,46,7.60
2019,03,30,00,47,7.50
2019,03,30,00,48,7.60
2019,03,30,00,49,7.60
2019,03,30,00,50,7.60
2019,03,30,00,51,7.60
2019,03,30,00,52,7.60
2019,03,30,00,53,7.60
2019,03,30,00,54,7.60
2019,03,30,00,55,7.60
2019,03,30,00,56,7.60
2019,03,30,00,57,7.60
2019,03,30,00,58,7.60
2019,03,30,00,59,7.60
2019,03,30,01,00,7.50
2019,03,30,01,01,7.50
2019,03,30,01,02,7.50
2019,03,30,01,03,7.60
2019,03,30,01,04,7.60
2019,03,30,01,05,7.60
2019,03,30,01,06,7.60
2019,03,30,01,07,7.60
2019,03,30,01,08,7.60
2019,03,30,01,09,7.60
2019,03,30,01,10,7.60
2019,03,30,01,11,7.70
2019,03,30,01,12,7.70
2019,03,30,01,13,7.70
2019,03,30,01,14,7.70
2019,03,30,01,15,7.70
2019,03,30,01,16,7.70
2019,03,30,01,17,7.70
2019,03,30,01,18,7.70
2019,03,30,01,19,7.70
2019,03,30,01,20,7.60
2019,03,30,01,21,7.60
2019,03,30,01,22,7.40
2019,03,30,01,23,7.30
2019,03,30,01,24,7.20
2019,03,30,01,25,7.10
2019,03,30,01,26,7.00
2019,03,30,01,27,7.00
2019,03,30,01,28,6.90
2019,03,30,01,29,6.80
2019,03,30,01,30,6.80
2019,03,30,01,31,6.80
2019,03,30,01,32,6.70
2019,03,30,01,33,6.70
2019,03,30,01,34,6.70
2019,03,30,01,35,6.70
2019,03,30,01,36,6.80
2019,03,30,01,37,6.80
2019,03,30,01,38,6.80
2019,03,30,01,39,6.80
2019,03,30,01,40,6.80
2019,03,30,01,41,6.80
2019,03,30,01,42,6.70
2019,03,30,01,43,6.70
2019,03,30,01,44,6.70
2019,03,30,01,45,6.70
2019,03,30,01,46,6.60
2019,03,30,01,47,6.60
2019,03,30,01,48,6.70
2019,03,30,01,49,6.70
2019,03,30,01,50,6.70
2019,03,30,01,51,6.60
2019,03,30,01,52,6.60
2019,03,30,01,53,6.60
2019,03,30,01,54,6.60
2019,03,30,01,55,6.60
2019,03,30,01,56,6.60
2019,03,30,01,57,6.50
2019,03,30,01,58,6.50
2019,03,30,01,59,6.40
2019,03,30,02,00,6.40
2019,03,30,02,01,6.30
2019,03,30,02,02,6.20
2019,03,30,02,03,6.10
2019,03,30,02,04,6.10
2019,03,30,02,05,6.10
2019,03,30,02,06,6.10
2019,03,30,02,07,6.10
2019,03,30,02,08,6.10
2019,03,30,02,09,6.10
2019,03,30,02,10,6.10
2019,03,30,02,11,6.20
2019,03,30,02,12,6.20
2019,03,30,02,13,6.20
2019,03,30,02,14,6.30
2019,03,30,02,15,6.30
2019,03,30,02,16,6.20
2019,03,30,02,17,6.30
2019,03,30,02,18,6.30
2019,03,30,02,19,6.30
2019,03,30,02,20,6.40
2019,03,30,02,21,6.40
2019,03,30,02,22,6.40
2019,03,30,02,23,6.50
2019,03,30,02,24,6.50
2019,03,30,02,25,6.40
2019,03,30,02,26,6.40
2019,03,30,02,27,6.30
2019,03,30,02,28,6.30
2019,03,30,02,29,6.20
2019,03,30,02,30,6.20
2019,03,30,02,31,6.10
2019,03,30,02,32,6.00
2019,03,30,02,33,5.90
2019,03,30,02,34,5.80
2019,03,30,02,35,5.70
2019,03,30,02,36,5.70
2019,03,30,02,37,5.70
2019,03,30,02,38,5.70
2019,03,30,02,39,5.70
2019,03,30,02,40,5.70
2019,03,30,02,41,5.70
2019,03,30,02,42,5.70
2019,03,30,02,43,5.70
2019,03,30,02,44,5.80
2019,03,30,02,45,5.80
2019,03,30,02,46,5.80
2019,03,30,02,47,5.80
2019,03,30,02,48,5.80
2019,03,30,02,49,5.80
2019,03,30,02,50,5.80
2019,03,30,02,51,5.90
2019,03,30,02,52,5.90
2019,03,30,02,53,6.00
2019,03,30,02,54,6.00
2019,03,30,02,55,6.10
2019,03,30,02,56,6.20
2019,03,30,02,57,6.20
2019,03,30,02,58,6.30
2019,03,30,02,59,6.30
2019,03,30,03,00,6.30
2019,03,30,03,01,6.30
2019,03,30,03,02,6.40
2019,03,30,03,03,6.40
2019,03,30,03,04,6.50
2019,03,30,03,05,6.50
2019,03,30,03,06,6.60
2019,03,30,03,07,6.60
2019,03,30,03,08,6.60
2019,03,30,03,09,6.60
2019,03,30,03,10,6.50
2019,03,30,03,11,6.50
2019,03,30,03,12,6.40
2019,03,30,03,13,6.40
2019,03,30,03,14,6.50
2019,03,30,03,15,6.60
2019,03,30,03,16,6.60
2019,03,30,03,17,6.70
2019,03,30,03,18,6.70
2019,03,30,03,19,6.70
2019,03,30,03,20,6.70
2019,03,30,03,21,6.70
2019,03,30,03,22,6.70
2019,03,30,03,23,6.70
2019,03,30,03,24,6.70
2019,03,30,03,25,6.70
2019,03,30,03,26,6.70
2019,03,30,03,27,6.70
2019,03,30,03,28,6.70
2019,03,30,03,29,6.70
2019,03,30,03,30,6.70
2019,03,30,03,31,6.60
2019,03,30,03,32,6.50
2019,03,30,03,33,6.40
2019,03,30,03,34,6.40
2019,03,30,03,35,6.30
2019,03,30,03,36,6.20
2019,03,30,03,37,6.20
2019,03,30,03,38,6.20
2019,03,30,03,39,6.20
2019,03,30,03,40,6.20
2019,03,30,03,41,6.20
2019,03,30,03,42,6.30
2019,03,30,03,43,6.30
2019,03,30,03,44,6.30
2019,03,30,03,45,6.30
2019,03,30,03,46,6.30
2019,03,30,03,47,6.10
2019,03,30,03,48,6.00
2019,03,30,03,49,5.90
2019,03,30,03,50,5.80
2019,03,30,03,51,5.70
2019,03,30,03,52,5.70
2019,03,30,03,53,5.60
2019,03,30,03,54,5.60
2019,03,30,03,55,5.50
2019,03,30,03,56,5.50
2019,03,30,03,57,5.50
2019,03,30,03,58,5.50
2019,03,30,03,59,5.60
2019,03,30,04,00,5.60
2019,03,30,04,01,5.70
2019,03,30,04,02,5.70
2019,03,30,04,03,5.70
2019,03,30,04,04,5.80
2019,03,30,04,05,5.70
2019,03,30,04,06,5.60
2019,03,30,04,07,5.60
2019,03,30,04,08,5.50
2019,03,30,04,09,5.40
2019,03,30,04,10,5.30
2019,03,30,04,11,5.30
2019,03,30,04,12,5.30
2019,03,30,04,13,5.40
2019,03,30,04,14,5.40
2019,03,30,04,15,5.40
2019,03,30,04,16,5.40
2019,03,30,04,17,5.40
2019,03,30,04,18,5.40
2019,03,30,04,19,5.40
2019,03,30,04,20,5.40
2019,03,30,04,21,5.30
2019,03,30,04,22,5.30
2019,03,30,04,23,5.20
2019,03,30,04,24,5.10
2019,03,30,04,25,5.10
2019,03,30,04,26,5.10
2019,03,30,04,27,5.10
2019,03,30,04,28,5.20
2019,03,30,04,29,5.20
2019,03,30,04,30,5.20
2019,03,30,04,31,5.20
2019,03,30,04,32,5.20
2019,03,30,04,33,5.20
2019,03,30,04,34,5.20
2019,03,30,04,35,5.20
2019,03,30,04,36,5.30
2019,03,30,04,37,5.30
2019,03,30,04,38,5.30
2019,03,30,04,39,5.30
2019,03,30,04,40,5.40
2019,03,30,04,41,5.40
2019,03,30,04,42,5.40
2019,03,30,04,43,5.50
2019,03,30,04,44,5.50
2019,03,30,04,45,5.50
2019,03,30,04,46,5.40
2019,03,30,04,47,5.30
2019,03,30,04,48,5.30
2019,03,30,04,49,5.20
2019,03,30,04,50,5.10
2019,03,30,04,51,5.00
2019,03,30,04,52,4.90
2019,03,30,04,53,4.70
2019,03,30,04,54,4.60
2019,03,30,04,55,4.60
2019,03,30,04,56,4.50
2019,03,30,04,57,4.50
2019,03,30,04,58,4.50
2019,03,30,04,59,4.60
2019,03,30,05,00,4.50
2019,03,30,05,01,4.50
2019,03,30,05,02,4.40
2019,03,30,05,03,4.40
2019,03,30,05,04,4.30
2019,03,30,05,05,4.20
2019,03,30,05,06,4.20
2019,03,30,05,07,4.10
2019,03,30,05,08,4.10
2019,03,30,05,09,4.00
2019,03,30,05,10,4.00
2019,03,30,05,11,3.90
2019,03,30,05,12,3.90
2019,03,30,05,13,4.00
2019,03,30,05,14,4.10
2019,03,30,05,15,4.20
2019,03,30,05,16,4.30
2019,03,30,05,17,4.40
2019,03,30,05,18,4.40
2019,03,30,05,19,4.50
2019,03,30,05,20,4.50
2019,03,30,05,21,4.60
2019,03,30,05,22,4.60
2019,03,30,05,23,4.60
2019,03,30,05,24,4.70
2019,03,30,05,25,4.80
2019,03,30,05,26,5.00
2019,03,30,05,27,5.10
2019,03,30,05,28,5.20
2019,03,30,05,29,5.30
2019,03,30,05,30,5.40
2019,03,30,05,31,5.40
2019,03,30,05,32,5.30
2019,03,30,05,33,5.30
2019,03,30,05,34,5.20
2019,03,30,05,35,5.10
2019,03,30,05,36,5.00
2019,03,30,05,37,4.90
2019,03,30,05,38,4.90
2019,03,30,05,39,4.80
2019,03,30,05,40,4.70
2019,03,30,05,41,4.70
2019,03,30,05,42,4.80
2019,03,30,05,43,4.80
2019,03,30,05,44,4.80
2019,03,30,05,45,4.80
2019,03,30,05,46,4.80
2019,03,30,05,47,4.80
2019,03,30,05,48,4.80
2019,03,30,05,49,4.80
2019,03,30,05,50,4.70
2019,03,30,05,51,4.60
2019,03,30,05,52,4.50
2019,03,30,05,53,4.50
2019,03,30,05,54,4.40
2019,03,30,05,55,4.40
2019,03,30,05,56,4.30
2019,03,30,05,57,4.40
2019,03,30,05,58,4.40
2019,03,30,05,59,4.50
2019,03,30,06,00,4.60
2019,03,30,06,01,4.50
2019,03,30,06,02,4.50
2019,03,30,06,03,4.50
2019,03,30,06,04,4.60
2019,03,30,06,05,4.70
2019,03,30,06,06,4.80
2019,03,30,06,07,4.80
2019,03,30,06,08,4.90
2019,03,30,06,09,4.90
2019,03,30,06,10,5.00
2019,03,30,06,11,5.00
2019,03,30,06,12,5.00
2019,03,30,06,13,5.00
2019,03,30,06,14,5.00
2019,03,30,06,15,4.90
2019,03,30,06,16,4.90
2019,03,30,06,17,4.90
2019,03,30,06,18,4.90
2019,03,30,06,19,4.90
2019,03,30,06,20,4.90
2019,03,30,06,21,4.80
2019,03,30,06,22,4.70
2019,03,30,06,23,4.60
2019,03,30,06,24,4.50
2019,03,30,06,25,4.40
2019,03,30,06,26,4.30
2019,03,30,06,27,4.30
2019,03,30,06,28,4.20
2019,03,30,06,29,4.20
2019,03,30,06,30,4.20
2019,03,30,06,31,4.10
2019,03,30,06,32,4.00
2019,03,30,06,33,3.90
2019,03,30,06,34,3.90
2019,03,30,06,35,3.80
2019,03,30,06,36,3.80
2019,03,30,06,37,3.80
2019,03,30,06,38,3.90
2019,03,30,06,39,3.90
2019,03,30,06,40,3.90
2019,03,30,06,41,3.90
2019,03,30,06,42,3.90
2019,03,30,06,43,3.90
2019,03,30,06,44,3.90
2019,03,30,06,45,3.90
2019,03,30,06,46,3.90
2019,03,30,06,47,3.90
2019,03,30,06,48,3.90
2019,03,30,06,49,3.90
2019,03,30,06,50,3.80
2019,03,30,06,51,3.80
2019,03,30,06,52,3.80
2019,03,30,06,53,3.80
2019,03,30,06,54,3.80
2019,03,30,06,55,3.80
2019,03,30,06,56,3.80
2019,03,30,06,57,3.80
2019,03,30,06,58,3.80
2019,03,30,06,59,3.80
2019,03,30,07,00,3.80
2019,03,30,07,01,3.70
2019,03,30,07,02,3.70
2019,03,30,07,03,3.70
2019,03,30,07,04,3.70
2019,03,30,07,05,3.60
2019,03,30,07,06,3.60
2019,03,30,07,07,3.60
2019,03,30,07,08,3.60
2019,03,30,07,09,3.60
2019,03,30,07,10,3.60
2019,03,30,07,11,3.60
2019,03,30,07,12,3.60
2019,03,30,07,13,3.70
2019,03,30,07,14,3.80
2019,03,30,07,15,3.90
2019,03,30,07,16,4.00
2019,03,30,07,17,4.10
2019,03,30,07,18,4.00
2019,03,30,07,19,4.00
2019,03,30,07,20,3.90
2019,03,30,07,21,3.90
2019,03,30,07,22,3.90
2019,03,30,07,23,3.90
2019,03,30,07,24,3.80
2019,03,30,07,25,3.80
2019,03,30,07,26,3.80
2019,03,30,07,27,3.80
2019,03,30,07,28,3.70
2019,03,30,07,29,3.70
2019,03,30,07,30,3.70
2019,03,30,07,31,3.60
2019,03,30,07,32,3.60
2019,03,30,07,33,3.60
2019,03,30,07,34,3.60
2019,03,30,07,35,3.60
2019,03,30,07,36,3.70
2019,03,30,07,37,3.70
2019,03,30,07,38,3.80
2019,03,30,07,39,3.90
2019,03,30,07,40,4.00
2019,03,30,07,41,4.10
2019,03,30,07,42,4.10
2019,03,30,07,43,4.10
2019,03,30,07,44,4.20
2019,03,30,07,45,4.20
2019,03,30,07,46,4.20
2019,03,30,07,47,4.20
2019,03,30,07,48,4.20
2019,03,30,07,49,4.30
2019,03,30,07,50,4.30
2019,03,30,07,51,4.40
2019,03,30,07,52,4.40
2019,03,30,07,53,4.40
2019,03,30,07,54,4.50
2019,03,30,07,55,4.50
2019,03,30,07,56,4.60
2019,03,30,07,57,4.60
2019,03,30,07,58,4.60
2019,03,30,07,59,4.70
2019,03,30,08,00,4.70
2019,03,30,08,01,4.80
2019,03,30,08,02,4.80
2019,03,30,08,03,4.90
2019,03,30,08,04,5.00
2019,03,30,08,05,5.00
2019,03,30,08,06,5.10
2019,03,30,08,07,5.20
2019,03,30,08,08,5.20
2019,03,30,08,09,5.30
2019,03,30,08,10,5.30
2019,03,30,08,11,5.30
2019,03,30,08,12,5.40
2019,03,30,08,13,5.50
2019,03,30,08,14,5.50
2019,03,30,08,15,5.60
2019,03,30,08,16,5.70
2019,03,30,08,17,5.70
2019,03,30,08,18,5.80
2019,03,30,08,19,5.80
2019,03,30,08,20,5.80
2019,03,30,08,21,5.90
2019,03,30,08,22,6.00
2019,03,30,08,23,6.10
2019,03,30,08,24,6.20
2019,03,30,08,25,6.30
2019,03,30,08,26,6.40
2019,03,30,08,27,6.50
2019,03,30,08,28,6.60
2019,03,30,08,29,6.70
2019,03,30,08,30,6.70
2019,03,30,08,31,6.80
2019,03,30,08,32,6.80
2019,03,30,08,33,6.80
2019,03,30,08,34,6.90
2019,03,30,08,35,6.90
2019,03,30,08,36,7.00
2019,03,30,08,37,7.10
2019,03,30,08,38,7.20
2019,03,30,08,39,7.20
2019,03,30,08,40,7.30
2019,03,30,08,41,7.30
2019,03,30,08,42,7.40
2019,03,30,08,43,7.40
2019,03,30,08,44,7.50
2019,03,30,08,45,7.60
2019,03,30,08,46,7.70
2019,03,30,08,47,7.80
2019,03,30,08,48,7.80
2019,03,30,08,49,7.90
2019,03,30,08,50,8.00
2019,03,30,08,51,8.10
2019,03,30,08,52,8.20
2019,03,30,08,53,8.30
2019,03,30,08,54,8.40
2019,03,30,08,55,8.50
2019,03,30,08,56,8.60
2019,03,30,08,57,8.80
2019,03,30,08,58,8.90
2019,03,30,08,59,9.00
2019,03,30,09,00,9.00
2019,03,30,09,01,9.10
2019,03,30,09,02,9.10
2019,03,30,09,03,9.10
2019,03,30,09,04,9.00
2019,03,30,09,05,9.00
2019,03,30,09,06,9.00
2019,03,30,09,07,9.00
2019,03,30,09,08,9.00
2019,03,30,09,09,9.00
2019,03,30,09,10,9.00
2019,03,30,09,11,8.90
2019,03,30,09,12,8.90
2019,03,30,09,13,8.90
2019,03,30,09,14,8.90
2019,03,30,09,15,8.90
2019,03,30,09,16,8.90
2019,03,30,09,17,8.90
2019,03,30,09,18,8.90
2019,03,30,09,19,9.00
2019,03,30,09,20,9.00
2019,03,30,09,21,9.00
2019,03,30,09,22,9.00
2019,03,30,09,23,9.10
2019,03,30,09,24,9.10
2019,03,30,09,25,9.10
2019,03,30,09,26,9.20
2019,03,30,09,27,9.20
2019,03,30,09,28,9.20
2019,03,30,09,29,9.20
2019,03,30,09,30,9.30
2019,03,30,09,31,9.30
2019,03,30,09,32,9.40
2019,03,30,09,33,9.40
2019,03,30,09,34,9.50
2019,03,30,09,35,9.60
2019,03,30,09,36,9.60
2019,03,30,09,37,9.70
2019,03,30,09,38,9.70
2019,03,30,09,39,9.80
2019,03,30,09,40,9.80
2019,03,30,09,41,9.80
2019,03,30,09,42,9.80
2019,03,30,09,43,9.80
2019,03,30,09,44,9.90
2019,03,30,09,45,9.90
2019,03,30,09,46,10.00
2019,03,30,09,47,10.10
2019,03,30,09,48,10.20
2019,03,30,09,49,10.10
2019,03,30,09,50,10.00
2019,03,30,09,51,10.00
2019,03,30,09,52,9.90
2019,03,30,09,53,9.90
2019,03,30,09,54,10.00
2019,03,30,09,55,10.00
2019,03,30,09,56,9.90
2019,03,30,09,57,9.90
2019,03,30,09,58,9.90
2019,03,30,09,59,10.00
2019,03,30,10,00,10.00
2019,03,30,10,01,10.00
2019,03,30,10,02,10.10
2019,03,30,10,03,10.20
2019,03,30,10,04,10.30
2019,03,30,10,05,10.40
2019,03,30,10,06,10.60
2019,03,30,10,07,10.70
2019,03,30,10,08,10.70
2019,03,30,10,09,10.80
2019,03,30,10,10,10.80
2019,03,30,10,11,10.80
2019,03,30,10,12,10.80
2019,03,30,10,13,10.90
2019,03,30,10,14,10.90
2019,03,30,10,15,10.90
2019,03,30,10,16,10.90
2019,03,30,10,17,10.90
2019,03,30,10,18,11.00
2019,03,30,10,19,11.10
2019,03,30,10,20,11.20
2019,03,30,10,21,11.20
2019,03,30,10,22,11.30
2019,03,30,10,23,11.40
2019,03,30,10,24,11.50
2019,03,30,10,25,11.50
2019,03,30,10,26,11.50
2019,03,30,10,27,11.40
2019,03,30,10,28,11.30
2019,03,30,10,29,11.20
2019,03,30,10,30,11.10
2019,03,30,10,31,11.10
2019,03,30,10,32,11.10
2019,03,30,10,33,11.20
2019,03,30,10,34,11.20
2019,03,30,10,35,11.30
2019,03,30,10,36,11.30
2019,03,30,10,37,11.20
2019,03,30,10,38,11.20
2019,03,30,10,39,11.30
2019,03,30,10,40,11.30
2019,03,30,10,41,11.30
2019,03,30,10,42,11.40
2019,03,30,10,43,11.40
2019,03,30,10,44,11.50
2019,03,30,10,45,11.60
2019,03,30,10,46,11.60
2019,03,30,10,47,11.60
2019,03,30,10,48,11.70
2019,03,30,10,49,11.80
2019,03,30,10,50,11.90
2019,03,30,10,51,12.00
2019,03,30,10,52,12.00
2019,03,30,10,53,12.00
2019,03,30,10,54,11.90
2019,03,30,10,55,11.90
2019,03,30,10,56,11.90
2019,03,30,10,57,11.80
2019,03,30,10,58,11.80
2019,03,30,10,59,11.80
2019,03,30,11,00,11.80
2019,03,30,11,01,11.70
2019,03,30,11,02,11.70
2019,03,30,11,03,11.80
2019,03,30,11,04,11.80
2019,03,30,11,05,11.90
2019,03,30,11,06,11.90
2019,03,30,11,07,11.90
2019,03,30,11,08,11.90
2019,03,30,11,09,12.00
2019,03,30,11,10,12.00
2019,03,30,11,11,11.90
2019,03,30,11,12,11.90
2019,03,30,11,13,11.90
2019,03,30,11,14,11.90
2019,03,30,11,15,12.00
2019,03,30,11,16,12.00
2019,03,30,11,17,12.10
2019,03,30,11,18,12.20
2019,03,30,11,19,12.30
2019,03,30,11,20,12.30
2019,03,30,11,21,12.40
2019,03,30,11,22,12.50
2019,03,30,11,23,12.40
2019,03,30,11,24,12.40
2019,03,30,11,25,12.40
2019,03,30,11,26,12.50
2019,03,30,11,27,12.60
2019,03,30,11,28,12.60
2019,03,30,11,29,12.60
2019,03,30,11,30,12.70
2019,03,30,11,31,12.70
2019,03,30,11,32,12.70
2019,03,30,11,33,12.80
2019,03,30,11,34,12.90
2019,03,30,11,35,12.90
2019,03,30,11,36,13.00
2019,03,30,11,37,13.10
2019,03,30,11,38,13.20
2019,03,30,11,39,13.20
2019,03,30,11,40,13.30
2019,03,30,11,41,13.30
2019,03,30,11,42,13.30
2019,03,30,11,43,13.30
2019,03,30,11,44,13.20
2019,03,30,11,45,13.20
2019,03,30,11,46,13.10
2019,03,30,11,47,13.20
2019,03,30,11,48,13.20
2019,03,30,11,49,13.20
2019,03,30,11,50,13.30
2019,03,30,11,51,13.30
2019,03,30,11,52,13.30
2019,03,30,11,53,13.20
2019,03,30,11,54,13.20
2019,03,30,11,55,13.20
2019,03,30,11,56,13.20
2019,03,30,11,57,13.20
2019,03,30,11,58,13.20
2019,03,30,11,59,13.30
2019,03,30,12,00,13.30
2019,03,30,12,01,13.20
2019,03,30,12,02,13.10
2019,03,30,12,03,13.10
2019,03,30,12,04,13.10
2019,03,30,12,05,13.20
2019,03,30,12,06,13.20
2019,03,30,12,07,13.20
2019,03,30,12,08,13.30
2019,03,30,12,09,13.30
2019,03,30,12,10,13.40
2019,03,30,12,11,13.50
2019,03,30,12,12,13.50
2019,03,30,12,13,13.60
2019,03,30,12,14,13.70
2019,03,30,12,15,13.70
2019,03,30,12,16,13.80
2019,03,30,12,17,13.80
2019,03,30,12,18,13.70
2019,03,30,12,19,13.80
2019,03,30,12,20,13.80
2019,03,30,12,21,13.90
2019,03,30,12,22,13.90
2019,03,30,12,23,13.90
2019,03,30,12,24,13.90
2019,03,30,12,25,13.90
2019,03,30,12,26,13.90
2019,03,30,12,27,13.90
2019,03,30,12,28,14.00
2019,03,30,12,29,14.00
2019,03,30,12,30,14.10
2019,03,30,12,31,14.10
2019,03,30,12,32,14.10
2019,03,30,12,33,14.10
2019,03,30,12,34,14.10
2019,03,30,12,35,14.20
2019,03,30,12,36,14.20
2019,03,30,12,37,14.30
2019,03,30,12,38,14.30
2019,03,30,12,39,14.40
2019,03,30,12,40,14.50
2019,03,30,12,41,14.60
2019,03,30,12,42,14.60
2019,03,30,12,43,14.60
2019,03,30,12,44,14.60
2019,03,30,12,45,14.50
2019,03,30,12,46,14.50
2019,03,30,12,47,14.40
2019,03,30,12,48,14.30
2019,03,30,12,49,14.30
2019,03,30,12,50,14.20
2019,03,30,12,51,14.30
2019,03,30,12,52,14.30
2019,03,30,12,53,14.30
2019,03,30,12,54,14.20
2019,03,30,12,55,14.20
2019,03,30,12,56,14.20
2019,03,30,12,57,14.30
2019,03,30,12,58,14.30
2019,03,30,12,59,14.20
2019,03,30,13,00,14.20
2019,03,30,13,01,14.10
2019,03,30,13,02,14.10
2019,03,30,13,03,14.10
2019,03,30,13,04,14.20
2019,03,30,13,05,14.30
2019,03,30,13,06,14.30
2019,03,30,13,07,14.40
2019,03,30,13,08,14.40
2019,03,30,13,09,14.50
2019,03,30,13,10,14.50
2019,03,30,13,11,14.40
2019,03,30,13,12,14.40
2019,03,30,13,13,14.40
2019,03,30,13,14,14.40
2019,03,30,13,15,14.40
2019,03,30,13,16,14.50
2019,03,30,13,17,14.50
2019,03,30,13,18,14.60
2019,03,30,13,19,14.60
2019,03,30,13,20,14.60
2019,03,30,13,21,14.60
2019,03,30,13,22,14.50
2019,03,30,13,23,14.40
2019,03,30,13,24,14.40
2019,03,30,13,25,14.40
2019,03,30,13,26,14.40
2019,03,30,13,27,14.50
2019,03,30,13,28,14.60
2019,03,30,13,29,14.70
2019,03,30,13,30,14.90
2019,03,30,13,31,15.00
2019,03,30,13,32,15.10
2019,03,30,13,33,15.20
2019,03,30,13,34,15.30
2019,03,30,13,35,15.30
2019,03,30,13,36,15.40
2019,03,30,13,37,15.40
2019,03,30,13,38,15.30
2019,03,30,13,39,15.30
2019,03,30,13,40,15.30
2019,03,30,13,41,15.30
2019,03,30,13,42,15.30
2019,03,30,13,43,15.30
2019,03,30,13,44,15.20
2019,03,30,13,45,15.20
2019,03,30,13,46,15.20
2019,03,30,13,47,15.10
2019,03,30,13,48,15.00
2019,03,30,13,49,14.90
2019,03,30,13,50,14.90
2019,03,30,13,51,14.80
2019,03,30,13,52,14.80
2019,03,30,13,53,14.80
2019,03,30,13,54,14.90
2019,03,30,13,55,15.00
2019,03,30,13,56,15.10
2019,03,30,13,57,15.10
2019,03,30,13,58,15.20
2019,03,30,13,59,15.20
2019,03,30,14,00,15.20
2019,03,30,14,01,15.20
2019,03,30,14,02,15.20
2019,03,30,14,03,15.20
2019,03,30,14,04,15.20
2019,03,30,14,05,15.20
2019,03,30,14,06,15.10
2019,03,30,14,07,15.00
2019,03,30,14,08,14.90
2019,03,30,14,09,14.90
2019,03,30,14,10,14.90
2019,03,30,14,11,15.00
2019,03,30,14,12,15.00
2019,03,30,14,13,15.10
2019,03,30,14,14,15.20
2019,03,30,14,15,15.20
2019,03,30,14,16,15.30
2019,03,30,14,17,15.30
2019,03,30,14,18,15.30
2019,03,30,14,19,15.40
2019,03,30,14,20,15.40
2019,03,30,14,21,15.40
2019,03,30,14,22,15.50
2019,03,30,14,23,15.50
2019,03,30,14,24,15.60
2019,03,30,14,25,15.60
2019,03,30,14,26,15.60
2019,03,30,14,27,15.60
2019,03,30,14,28,15.70
2019,03,30,14,29,15.60
2019,03,30,14,30,15.50
2019,03,30,14,31,15.40
2019,03,30,14,32,15.40
2019,03,30,14,33,15.30
2019,03,30,14,34,15.30
2019,03,30,14,35,15.20
2019,03,30,14,36,15.30
2019,03,30,14,37,15.30
2019,03,30,14,38,15.30
2019,03,30,14,39,15.30
2019,03,30,14,40,15.40
2019,03,30,14,41,15.40
2019,03,30,14,42,15.40
2019,03,30,14,43,15.40
2019,03,30,14,44,15.40
2019,03,30,14,45,15.40
2019,03,30,14,46,15.40
2019,03,30,14,47,15.40
2019,03,30,14,48,15.40
2019,03,30,14,49,15.50
2019,03,30,14,50,15.60
2019,03,30,14,51,15.60
2019,03,30,14,52,15.70
2019,03,30,14,53,15.70
2019,03,30,14,54,15.70
2019,03,30,14,55,15.70
2019,03,30,14,56,15.80
2019,03,30,14,57,15.80
2019,03,30,14,58,15.80
2019,03,30,14,59,15.90
2019,03,30,15,00,15.90
2019,03,30,15,01,15.90
2019,03,30,15,02,15.80
2019,03,30,15,03,15.90
2019,03,30,15,04,15.90
2019,03,30,15,05,15.80
2019,03,30,15,06,15.80
2019,03,30,15,07,15.80
2019,03,30,15,08,15.70
2019,03,30,15,09,15.70
2019,03,30,15,10,15.70
2019,03,30,15,11,15.70
2019,03,30,15,12,15.80
2019,03,30,15,13,15.90
2019,03,30,15,14,15.90
2019,03,30,15,15,16.00
2019,03,30,15,16,16.10
2019,03,30,15,17,16.20
2019,03,30,15,18,16.20
2019,03,30,15,19,16.20
2019,03,30,15,20,16.20
2019,03,30,15,21,16.00
2019,03,30,15,22,15.90
2019,03,30,15,23,15.90
2019,03,30,15,24,15.80
2019,03,30,15,25,15.90
2019,03,30,15,26,15.90
2019,03,30,15,27,15.90
2019,03,30,15,28,15.80
2019,03,30,15,29,15.80
2019,03,30,15,30,15.70
2019,03,30,15,31,15.70
2019,03,30,15,32,15.60
2019,03,30,15,33,15.60
2019,03,30,15,34,15.60
2019,03,30,15,35,15.60
2019,03,30,15,36,15.60
2019,03,30,15,37,15.70
2019,03,30,15,38,15.70
2019,03,30,15,39,15.70
2019,03,30,15,40,15.80
2019,03,30,15,41,15.90
2019,03,30,15,42,15.90
2019,03,30,15,43,15.90
2019,03,30,15,44,15.90
2019,03,30,15,45,15.90
2019,03,30,15,46,15.90
2019,03,30,15,47,15.80
2019,03,30,15,48,15.80
2019,03,30,15,49,15.80
2019,03,30,15,50,15.90
2019,03,30,15,51,15.90
2019,03,30,15,52,16.00
2019,03,30,15,53,16.00
2019,03,30,15,54,16.10
2019,03,30,15,55,16.10
2019,03,30,15,56,16.10
2019,03,30,15,57,16.00
2019,03,30,15,58,15.90
2019,03,30,15,59,15.90
2019,03,30,16,00,15.80
2019,03,30,16,01,15.80
2019,03,30,16,02,15.80
2019,03,30,16,03,15.70
2019,03,30,16,04,15.70
2019,03,30,16,05,15.70
2019,03,30,16,06,15.70
2019,03,30,16,07,15.70
2019,03,30,16,08,15.70
2019,03,30,16,09,15.70
2019,03,30,16,10,15.80
2019,03,30,16,11,15.90
2019,03,30,16,12,16.00
2019,03,30,16,13,16.00
2019,03,30,16,14,16.10
2019,03,30,16,15,16.10
2019,03,30,16,16,16.10
2019,03,30,16,17,16.10
2019,03,30,16,18,16.20
2019,03,30,16,19,16.20
2019,03,30,16,20,16.20
2019,03,30,16,21,16.20
2019,03,30,16,22,16.30
2019,03,30,16,23,16.30
2019,03,30,16,24,16.30
2019,03,30,16,25,16.30
2019,03,30,16,26,16.30
2019,03,30,16,27,16.30
2019,03,30,16,28,16.40
2019,03,30,16,29,16.40
2019,03,30,16,30,16.40
2019,03,30,16,31,16.40
2019,03,30,16,32,16.40
2019,03,30,16,33,16.40
2019,03,30,16,34,16.40
2019,03,30,16,35,16.40
2019,03,30,16,36,16.40
2019,03,30,16,37,16.30
2019,03,30,16,38,16.30
2019,03,30,16,39,16.30
2019,03,30,16,40,16.30
2019,03,30,16,41,16.30
2019,03,30,16,42,16.30
2019,03,30,16,43,16.30
2019,03,30,16,44,16.30
2019,03,30,16,45,16.30
2019,03,30,16,46,16.30
2019,03,30,16,47,16.30
2019,03,30,16,48,16.30
2019,03,30,16,49,16.30
2019,03,30,16,50,16.30
2019,03,30,16,51,16.20
2019,03,30,16,52,16.30
2019,03,30,16,53,16.30
2019,03,30,16,54,16.30
2019,03,30,16,55,16.40
2019,03,30,16,56,16.40
2019,03,30,16,57,16.40
2019,03,30,16,58,16.50
2019,03,30,16,59,16.50
2019,03,30,17,00,16.60
2019,03,30,17,01,16.60
2019,03,30,17,02,16.60
2019,03,30,17,03,16.50
2019,03,30,17,04,16.50
2019,03,30,17,05,16.40
2019,03,30,17,06,16.40
2019,03,30,17,07,16.40
2019,03,30,17,08,16.40
2019,03,30,17,09,16.40
2019,03,30,17,10,16.40
2019,03,30,17,11,16.50
2019,03,30,17,12,16.50
2019,03,30,17,13,16.50
2019,03,30,17,14,16.50
2019,03,30,17,15,16.60
2019,03,30,17,16,16.60
2019,03,30,17,17,16.50
2019,03,30,17,18,16.50
2019,03,30,17,19,16.50
2019,03,30,17,20,16.50
2019,03,30,17,21,16.50
2019,03,30,17,22,16.50
2019,03,30,17,23,16.50
2019,03,30,17,24,16.50
2019,03,30,17,25,16.50
2019,03,30,17,26,16.50
2019,03,30,17,27,16.50
2019,03,30,17,28,16.50
2019,03,30,17,29,16.40
2019,03,30,17,30,16.40
2019,03,30,17,31,16.40
2019,03,30,17,32,16.40
2019,03,30,17,33,16.30
2019,03,30,17,34,16.30
2019,03,30,17,35,16.30
2019,03,30,17,36,16.30
2019,03,30,17,37,16.30
2019,03,30,17,38,16.30
2019,03,30,17,39,16.30
2019,03,30,17,40,16.30
2019,03,30,17,41,16.30
2019,03,30,17,42,16.40
2019,03,30,17,43,16.30
2019,03,30,17,44,16.30
2019,03,30,17,45,16.30